FW5729 Weather Reports


Display with metric or nautical units.
time (UTC)temp
F
wind
direction
speed
MPH
gust
MPH
rain 1hr
in
rain 24hr
in
rain mn
in
humidity
%
barometer
mb
20260508213031 78 69 2.0 5.0 0.00 0.00 0.00 72 1008.4
20260508211536 80 41 0.0 3.0 0.00 0.00 0.00 69 1008.5
20260508210037 79 72 1.0 4.0 0.00 0.00 0.00 73 1008.8
20260508204536 77 0 0.0 5.0 0.00 0.00 0.00 73 1009.2
20260508203032 77 63 2.0 4.0 0.00 0.00 0.00 74 1009.3
20260508201532 77 57 2.0 8.0 0.00 0.00 0.00 73 1009.6
20260508200041 78 49 3.0 9.0 0.00 0.00 0.00 71 1009.7
20260508194533 78 52 2.0 5.0 0.00 0.00 0.00 72 1009.7
20260508193051 76 61 4.0 8.0 0.00 0.00 0.00 73 1010.0
20260508191542 76 66 3.0 5.0 0.00 0.00 0.00 73 1010.1
20260508190051 75 0 0.0 4.0 0.00 0.00 0.00 75 1010.6
20260508184536 75 59 3.0 4.0 0.00 0.00 0.00 75 1010.5
20260508183041 75 53 0.0 6.0 0.00 0.00 0.00 74 1010.7
20260508181539 75 0 0.0 6.0 0.00 0.00 0.00 75 1011.1
20260508180055 74 75 3.0 6.0 0.00 0.00 0.00 74 1011.2
20260508174549 73 56 3.0 8.0 0.00 0.00 0.00 75 1011.1
20260508173034 72 63 4.0 6.0 0.00 0.00 0.00 76 1011.4
20260508171534 72 53 0.0 5.0 0.00 0.00 0.00 78 1011.7
20260508170036 70 0 1.0 7.0 0.00 0.00 0.00 77 1012.0
20260508164546 71 66 0.0 3.0 0.00 0.00 0.00 76 1012.2
20260508163035 68 0 0.0 2.0 0.00 0.00 0.00 77 1012.6
20260508161535 67 82 0.0 0.0 0.00 0.00 0.00 80 1012.8
20260508160036 65 0 0.0 0.0 0.00 0.00 0.00 81 1012.8
20260508154535 66 0 0.0 0.0 0.00 0.00 0.00 80 1013.1
20260508153045 66 0 0.0 0.0 0.00 0.00 0.00 81 1013.2
20260508151538 65 0 0.0 2.0 0.00 0.00 0.00 81 1013.2
20260508150034 65 209 0.0 1.0 0.00 0.00 0.00 80 1013.0
20260508144536 65 0 0.0 0.0 0.00 0.00 0.00 80 1013.0
20260508143031 65 0 0.0 0.0 0.00 0.00 0.00 81 1013.1
20260508141535 65 0 0.0 0.0 0.00 0.00 0.00 79 1013.0
20260508140033 64 0 0.0 0.0 0.00 0.00 0.00 80 1012.9
20260508134536 63 0 0.0 1.0 0.00 0.00 0.00 82 1013.1
20260508133033 62 0 0.0 5.0 0.00 0.00 0.00 82 1013.1
20260508131532 61 0 0.0 3.0 0.00 0.00 0.00 83 1013.0
20260508130041 61 0 0.0 0.0 0.00 0.00 0.00 86 1013.5
20260508124536 60 0 0.0 0.0 0.00 0.00 0.00 85 1013.5
20260508123036 60 0 0.0 0.0 0.00 0.00 0.00 85 1013.6
20260508121534 60 0 0.0 2.0 0.00 0.00 0.00 84 1013.5
20260508120036 60 0 0.0 2.0 0.00 0.00 0.00 84 1013.4
20260508114553 60 0 0.0 0.0 0.00 0.00 0.00 86 1013.6
20260508113030 60 0 0.0 0.0 0.00 0.00 0.00 86 1013.9
20260508111538 60 0 0.0 0.0 0.00 0.00 0.00 87 1013.7
20260508110034 60 0 0.0 0.0 0.00 0.00 0.00 85 1013.9
20260508104538 59 0 0.0 0.0 0.00 0.00 0.00 86 1013.6
20260508103051 59 0 0.0 0.0 0.00 0.00 0.00 87 1013.4
20260508101550 59 66 3.0 4.0 0.00 0.00 0.00 87 1013.5
20260508100038 59 56 0.0 1.0 0.00 0.00 0.00 88 1014.0
20260508094533 60 0 0.0 0.0 0.00 0.00 0.00 88 1014.2
20260508093038 60 53 0.0 1.0 0.00 0.00 0.00 87 1014.0
20260508091535 60 0 0.0 0.0 0.00 0.00 0.00 85 1014.1
20260508090032 60 0 0.0 0.0 0.00 0.00 0.00 85 1013.7
20260508084532 60 0 0.0 0.0 0.00 0.00 0.00 83 1013.9
20260508083039 60 0 0.0 2.0 0.00 0.00 0.00 84 1013.7
20260508081538 60 0 0.0 0.0 0.00 0.00 0.00 85 1013.8
20260508080032 60 0 0.0 0.0 0.00 0.00 0.00 84 1014.0
20260508074533 60 0 0.0 0.0 0.00 0.00 0.00 85 1013.8
20260508073302 59 0 0.0 0.0 0.00 0.00 0.00 86 1013.7
20260508071535 59 0 0.0 0.0 0.00 0.00 0.00 88 1013.7
20260508070043 59 0 0.0 0.0 0.00 0.00 0.00 88 1013.8
20260508064539 59 0 0.0 0.0 0.00 0.00 0.00 88 1014.3
20260508063046 58 0 0.0 0.0 0.00 0.00 0.00 87 1014.4
20260508061537 59 0 0.0 0.0 0.00 0.00 0.00 87 1014.4
20260508060035 59 0 0.0 0.0 0.00 0.00 0.00 85 1014.9
20260508054535 59 0 0.0 0.0 0.00 0.00 0.00 84 1014.5
20260508053033 59 0 0.0 0.0 0.00 0.00 0.00 86 1014.4
20260508051532 59 0 0.0 0.0 0.00 0.00 0.00 85 1014.9
20260508050037 60 0 0.0 0.0 0.00 0.00 0.00 83 1014.9
20260508044533 59 0 0.0 0.0 0.00 0.00 0.00 84 1014.5
20260508043051 59 0 0.0 0.0 0.00 0.00 0.00 84 1014.8
20260508041533 60 0 0.0 3.0 0.00 0.00 0.00 83 1014.8
20260508040037 60 0 0.0 0.0 0.00 0.00 0.00 81 1014.2
20260508034533 60 0 0.0 0.0 0.00 0.00 0.00 78 1015.1
20260508033032 60 0 0.0 0.0 0.00 0.00 0.00 78 1015.1
20260508031533 60 0 0.0 0.0 0.00 0.00 0.00 78 1015.5
20260508030040 61 0 0.0 0.0 0.00 0.00 0.00 78 1015.7
20260508024532 61 0 0.0 0.0 0.00 0.00 0.00 78 1014.8
20260508023029 62 0 0.0 0.0 0.00 0.00 0.00 74 1014.2
20260508021531 62 0 0.0 1.0 0.00 0.00 0.00 72 1013.7
20260508020043 62 0 0.0 3.0 0.00 0.00 0.00 73 1013.3
20260508014533 62 0 0.0 0.0 0.00 0.00 0.00 71 1013.3
20260508013034 63 0 0.0 5.0 0.00 0.00 0.00 69 1013.4
20260508011533 63 0 0.0 6.0 0.00 0.00 0.00 69 1013.3
20260508010035 63 62 1.0 8.0 0.00 0.00 0.00 69 1013.2
20260508004534 64 63 2.0 10.0 0.00 0.00 0.00 69 1013.6
20260508003032 64 63 3.0 8.0 0.00 0.00 0.00 71 1014.0
20260508001557 64 60 2.0 7.0 0.00 0.00 0.00 69 1013.7
20260508000029 64 59 3.0 6.0 0.00 0.00 0.00 68 1013.8
20260507234535 65 67 1.0 7.0 0.00 0.00 0.00 66 1014.6
20260507233033 65 66 0.0 3.0 0.00 0.00 0.00 69 1015.1
20260507231536 65 51 3.0 6.0 0.00 0.00 0.00 68 1014.9
20260507230032 65 0 1.0 7.0 0.00 0.00 0.00 68 1015.0
20260507224541 65 77 3.0 7.0 0.00 0.00 0.00 67 1014.9
20260507223037 66 66 2.0 6.0 0.00 0.00 0.00 69 1015.1
20260507221620 66 62 4.0 8.0 0.00 0.00 0.00 67 1015.4
20260507221532 66 62 4.0 8.0 0.00 0.00 0.00 67 1015.4
20260507220042 65 23 4.0 8.0 0.00 0.00 0.00 68 1015.4
20260507214537 65 44 2.0 8.0 0.00 0.00 0.00 68 1015.7